Location: York
(31.8935°S, 116.7682°E)
Time: 10:12:37
(UTC+08:00)

X-37B - Pass Details

Date: 24 May 2021
Orbit: 386 x 389 km, 45.0° (Epoch: 23 June)

Event Time Altitude Azimuth Distance (km) Brightness Sun altitude
Exits shadow 05:51:12 26° 290° (WNW) 812 1.7 -14.6°
Maximum altitude 05:52:00 30° 319° (NW) 736 1.7 -14.4°
Drops below altitude 10° 05:54:50 10° 22° (NNE) 1,411 3.9 -13.8°
Sets 05:57:02 0° 33° (NNE) 2,259 5.3 -13.4°
